Location: Castellare
(42.4669°N, 9.4728°E)
Time: 08:48:33
(UTC+00:00)

Cosmos 1864 Rocket - Pass Details

Date: 17 February 2020
Orbit: 951 x 997 km, 82.9° (Epoch: 31 March)

Event Time Altitude Azimuth Distance (km) Brightness Sun altitude
Rises 05:40:19 0° 350° (N) 3,636 7.3 -7.4°
Reaches altitude 10° 05:42:49 10° 348° (NNW) 2,687 6.6 -7.0°
Maximum altitude 05:48:55 70° 266° (W) 1,011 4.5 -5.9°
Drops below altitude 10° 05:55:01 10° 184° (S) 2,685 6.9 -4.8°
Sets 05:57:31 0° 182° (S) 3,633 7.6 -4.3°
